Asyut, Egypt

7:13 PM EET on September 21, 2017 (GMT +0200)
Asyut

Weather History for HEAT - February, 2014

Change the Weather History Date:

Wednesday, February 12, 2014

  Actual Average Record
Temperature  
Mean Temperature 64 °F -  
Max Temperature 86 °F 73 °F - ()
Min Temperature 41 °F 45 °F - ()
Degree Days  
Heating Degree Days 2    
Growing Degree Days 14 (Base 50)    
Moisture  
Dew Point 37 °F    
Average Humidity 45    
Maximum Humidity 76    
Minimum Humidity 5    
Precipitation  
Precipitation 0.00 in 0.00 in - ()
Sea Level Pressure  
Sea Level Pressure 29.99 in    
Wind  
Wind Speed 3 mph ()    
Max Wind Speed 9 mph    
Max Gust Speed -    
Visibility 6.0 miles    
Events      
T = Trace of Precipitation, MM = Missing Value Source: Averaged Metar Reports

Daily Weather History Graph

Daily Weather History Graph

Search for Another Location

Airport or City:

Trip Planner

Search our weather history database for the weather conditions in past years. The results will help you decide how hot, cold, wet, or windy it might be!

Date:

Astronomy

Feb. 12, 2014 Rise Set
Actual Time 6:34 AM EET 5:45 PM EET
Civil Twilight 6:11 AM EET 6:09 PM EET
Nautical Twilight 5:43 AM EET 6:37 PM EET
Astronomical Twilight 5:16 AM EET 7:04 PM EET
Moon 3:46 PM EET (2/12) 4:33 AM EET (2/12)
Length of Visible Light 11h 58m
Length of Day
11h 10m
Waxing Gibbous, 94% of the Moon is Illuminated
Feb 12
Waxing Gibbous
Feb 15
Full
Feb 22
Last Quarter
Mar 1
New
Mar 8
First Quarter

Hourly Weather History & Observations

Time (EET) Temp. Windchill Dew Point Humidity Pressure Visibility Wind Dir Wind Speed Gust Speed Precip Events Conditions
12:00 AM 57.2 °F - 46.4 °F 67% 30.04 in - WSW 4.6 mph - N/A   Clear
1:00 AM 55.4 °F - 46.4 °F 72% 30.04 in - WNW 5.8 mph - N/A   Clear
2:00 AM 52 °F - 41 °F 56% 30.04 in 6 mi SSW 1.2 mph - -  
2:00 AM 51.8 °F - 41.0 °F 67% 30.01 in - SSW 1.2 mph - N/A   Clear
3:00 AM 50.0 °F - 41.0 °F 71% 30.01 in - SW 2.3 mph - N/A   Clear
4:00 AM 50.0 °F - 41.0 °F 71% 30.01 in - SW 1.2 mph - N/A   Clear
5:00 AM 46 °F - 37 °F 62% 30.01 in 6 mi South 1.2 mph - -  
5:00 AM 46.4 °F - 37.4 °F 71% 29.98 in - South 1.2 mph - N/A   Clear
6:00 AM 44.6 °F - 37.4 °F 76% 30.01 in - Calm Calm - N/A   Clear
7:00 AM 44.6 °F - 37.4 °F 76% 30.01 in - Calm Calm - N/A   Clear
8:00 AM 47 °F - 37 °F 57% 30.03 in 6 mi SSE 3.5 mph - -  
8:00 AM 46.4 °F 45.2 °F 37.4 °F 71% 29.98 in - SSE 3.5 mph - N/A   Clear
9:00 AM 53.6 °F - 39.2 °F 58% 30.01 in - South 4.6 mph - N/A   Clear
10:00 AM 62.6 °F - 39.2 °F 42% 30.04 in - SSW 3.5 mph - N/A   Clear
11:00 AM 71 °F - 38 °F 20% 30.01 in 6 mi SSE 4.6 mph - -  
11:00 AM 71.6 °F - 39.2 °F 31% 30.01 in - SSE 4.6 mph - N/A   Clear
12:00 PM 73.4 °F - 39.2 °F 29% 29.98 in - South 5.8 mph - N/A   Clear
1:00 PM 80.6 °F - 23.0 °F 12% 29.98 in - SSE 6.9 mph - N/A   Clear
2:00 PM 84 °F - 25 °F 5% 29.91 in 6 mi SSE 9.2 mph - -  
2:00 PM 84.2 °F - 24.8 °F 11% 29.95 in - SSE 9.2 mph - N/A   Clear
3:00 PM 86.0 °F - 26.6 °F 12% 29.95 in - South 6.9 mph - N/A   Clear
5:00 PM 83 °F - 36 °F 10% 29.91 in 6 mi North 2.3 mph - -  
8:00 PM 68 °F - 42 °F 27% 29.96 in 6 mi Calm Calm - -  
9:00 PM 64.4 °F - 41.0 °F 42% 29.95 in - SSW 1.2 mph - N/A   Clear
11:00 PM 57 °F - 31 °F 26% 29.97 in 6 mi SE 2.3 mph - -  
11:00 PM 57.2 °F - 32.0 °F 38% 29.95 in - SE 2.3 mph - N/A   Clear